Location: Erfurt
(50.9688°N, 11.0193°E)
Time: 02:44:22
(UTC+02:00)

Tiangong 2 - Visible Passes

Search period start: 24 May 2018 00:00
Search period end: 03 June 2018 00:00
Orbit: 382 x 385 km, 42.8° (Epoch: 23 May)

Date Brightness Start Highest point End Pass type
(mag) Time Alt. Az. Time Alt. Az. Time Alt. Az.
24 May 2.9 23:11:45 10° SW 23:13:17 17° SSW 23:13:17 17° SSW visible
25 May 2.7 22:12:14 10° SW 22:14:28 18° S 22:16:22 12° SE visible
25 May 3.7 23:48:31 10° SW 23:48:34 10° SW 23:48:34 10° SW visible
26 May 2.7 22:48:43 10° SW 22:50:57 18° S 22:51:30 17° S visible
27 May 3.4 23:25:50 10° SW 23:26:31 12° SW 23:26:31 12° SW visible
28 May 3.0 22:25:47 10° SW 22:27:49 16° SSW 22:29:18 12° SSE visible
30 May 3.3 22:03:02 10° SW 22:04:37 13° SSW 22:06:11 10° SSE visible
